Showing default

ENMAP, 52159

Orbit data source: Space-Track

ENMAP, 52159 is a payload satellite owned by DLR (DE) in SSO that was launched on Fri, 01 Apr 2022 UTC via an FALCON 9 launch vehicle from the Air Force Eastern Test Range (AFETR). Payload-class satellites include a variety of spacecraft equipped with specific instruments for various scientific and technological missions. These include communications satellites like Starlink; space stations such as the ISS; scientific satellites like the Hubble; Earth observation satellites from companies like Planet Labs, Umbra, and HawkEye 360; GPS; miniature CubeSats for education and research; and military/defense satellites.

Loading next visibility...
Identifier
52159, 2022-033C
Orbit
SSO
Country
Flag of DEDE / GER
Related business
Manufacturer
KTHR/OHB
Mission
Operational Civil Imaging
Bus & Motor
ENMAP, AOCS
Mass
916 kg wet, ~857 kg dry
Launch date (UTC)
2022-04-01 (4 years ago)
Launch vehicle
FALCON 9
Launch site
Air Force Eastern Test Range (AFETR)
Object type
Payload
Rocket body
Debris
Shape & HBR
Box + 1 Pan, 2.0 m
Radar Cross Section
5.352 m², Large (>1 m²)

Expand to show TLE details & history
Last TLE update: 6 hours ago

TLE from 6 hours ago
0 ENMAP
1 52159U 22033C   26264.97219186 -.00000172  00000-0 -18090-4 0  9999
2 52159  97.9768 345.8295 0001634  85.9441 274.1955 14.74987877240923
Epoch: 2026-09-21T23:19Z
TLE epoch observation values (Epoch: 2026-09-21T23:19:57.376Z)
Latitude
-0.00001°
Longitude
-5.00392°
Altitude
648.118 km
Speed
7.534 km/s
True Right ascension
23h 03m 19s
True Declination
0° 00' 00"
Sunlit
Object was in full shadow at epoch
Visualization orbit readout
Latitude
Unknown
Longitude
Unknown
Altitude
Unknown
Speed
Unknown
Apparent Right ascension
Unknown
Apparent Declination
Unknown
Sunlit
N/A
Visualization observer readout
Local Sidereal Time
21:56:09
Azimuth
Unknown
Elevation
Unknown
Doppler factor
Unknown
Orbital elements
Apogee altitude
643.388 km
Perigee altitude
641.094 km
Semi-major axis
7,020.378 km
Eccentricity
0.00016
Inclination
97.9768°
RAAN
345.8295°
Arg. of periapsis
85.9441°
True anomaly
274.17683°
Mean anomaly
274.1955°
Eccentric anomaly
274.18616°
Mean motion
3.6898 °/min
Orbital period
97.57 mins
BSTAR
-0.00001809
Loading maneuver chart data...
Computing Atmospheric mass density...

Documentation

Showing up to 5 results
|